DK8PN Weather Reports


time (UTC)temp
C
wind
direction
speed
KPH
gust
KPH
rain 1hr
cm
rain 24hr
cm
rain mn
cm
humidity
%
barometer
mb
20210723160118 28 101 0.0 6.4 0.00 0.00 0.00 41 1013.4
20210723154613 27 360 0.0 4.8 0.00 0.00 0.00 41 1013.5
20210723153128 27 304 0.0 8.0 0.00 0.00 0.00 42 1013.6
20210723151646 28 300 0.0 4.8 0.00 0.00 0.00 43 1013.8
20210723150106 27 5 1.6 8.0 0.00 0.00 0.00 42 1013.9
20210723144549 27 24 1.6 9.7 0.00 0.00 0.00 45 1013.9
20210723143105 28 53 0.0 4.8 0.00 0.00 0.00 42 1014.0
20210723141606 27 321 0.0 6.4 0.00 0.00 0.00 43 1014.1
20210723140131 28 262 0.0 4.8 0.00 0.00 0.00 41 1014.1
20210723134528 27 24 0.0 6.4 0.00 0.00 0.00 45 1014.4
20210723133039 27 299 0.0 8.0 0.00 0.00 0.00 43 1014.5
20210723131539 27 244 3.2 8.0 0.00 0.00 0.00 42 1014.7
20210723130017 27 124 4.8 12.9 0.00 0.00 0.00 44 1014.8
20210723124522 27 92 0.0 6.4 0.00 0.00 0.00 44 1014.9
20210723123035 28 292 0.0 1.6 0.00 0.00 0.00 44 1015.0
20210723121508 27 312 4.8 9.7 0.00 0.00 0.00 46 1015.2
20210723120005 26 301 1.6 11.3 0.00 0.00 0.00 52 1015.4
20210723114505 25 11 0.0 6.4 0.00 0.00 0.00 53 1015.5
20210723113002 25 333 0.0 4.8 0.00 0.00 0.00 52 1015.8
20210723111646 26 96 0.0 4.8 0.00 0.00 0.00 51 1015.9
20210723110205 26 269 0.0 4.8 0.00 0.00 0.00 49 1016.1
20210723104717 25 169 0.0 6.4 0.00 0.00 0.00 53 1016.2
20210723103150 26 206 1.6 6.4 0.00 0.00 0.00 52 1016.4
20210723101624 26 285 0.0 4.8 0.00 0.00 0.00 55 1016.7
20210723100135 24 360 0.0 4.8 0.00 0.00 0.00 60 1016.9
20210723094759 24 317 0.0 6.4 0.00 0.00 0.00 61 1016.8
20210723093215 24 108 0.0 1.6 0.00 0.00 0.00 62 1017.0
20210723091641 24 109 0.0 3.2 0.00 0.00 0.00 62 1017.2
20210723090052 22 41 0.0 3.2 0.00 0.00 0.00 63 1017.2
20210723084626 22 350 0.0 1.6 0.00 0.00 0.00 67 1017.3
20210723083040 22 304 0.0 6.4 0.00 0.00 0.00 67 1017.5
20210723081522 22 289 0.0 1.6 0.00 0.00 0.00 71 1017.6
20210723080014 21 304 0.0 0.0 0.00 0.00 0.00 72 1017.7
20210723074513 20 334 0.0 1.6 0.00 0.00 0.00 77 1017.7
20210723073014 19 319 0.0 0.0 0.00 0.00 0.00 79 1017.7
20210723071519 18 319 0.0 0.0 0.00 0.00 0.00 78 1017.8
20210723070215 18 319 0.0 0.0 0.00 0.00 0.00 80 1017.9
20210723064619 17 319 0.0 0.0 0.00 0.00 0.00 82 1017.9
20210723063147 17 319 0.0 0.0 0.00 0.00 0.00 85 1017.9
20210723061709 16 319 0.0 0.0 0.00 0.00 0.00 87 1018.1
20210723060106 16 319 0.0 0.0 0.00 0.00 0.00 88 1018.2
20210723054640 15 319 0.0 0.0 0.00 0.00 0.00 90 1018.1
20210723053055 15 319 0.0 0.0 0.00 0.00 0.00 92 1018.1
20210723051544 13 319 0.0 0.0 0.00 0.00 0.00 92 1018.1
20210723050043 13 319 0.0 0.0 0.00 0.00 0.00 93 1018.0
20210723044555 13 317 0.0 0.0 0.00 0.00 0.00 93 1017.9
20210723043051 13 317 0.0 0.0 0.00 0.00 0.00 92 1017.8
20210723041544 13 317 0.0 0.0 0.00 0.00 0.00 92 1017.8
20210723040106 13 317 0.0 0.0 0.00 0.00 0.00 92 1017.7
20210723034554 13 317 0.0 0.0 0.00 0.00 0.00 92 1017.7
20210723033040 13 317 0.0 0.0 0.00 0.00 0.00 92 1017.8
20210723031525 13 317 0.0 0.0 0.00 0.00 0.00 92 1017.8
20210723030041 13 317 0.0 0.0 0.00 0.00 0.00 92 1017.9
20210723024544 13 317 0.0 0.0 0.00 0.00 0.00 92 1018.1
20210723023018 13 317 0.0 0.0 0.00 0.00 0.00 92 1018.1
20210723021513 13 317 0.0 0.0 0.00 0.00 0.00 92 1018.1
20210723020012 13 317 0.0 0.0 0.00 0.00 0.00 91 1018.2
20210723014513 13 317 0.0 0.0 0.00 0.00 0.00 91 1018.3
20210723013011 13 317 0.0 0.0 0.00 0.00 0.00 91 1018.3
20210723011508 14 317 0.0 0.0 0.00 0.00 0.00 90 1018.3
20210723010027 14 317 0.0 0.0 0.00 0.00 0.00 90 1018.4
20210723004509 14 317 0.0 0.0 0.00 0.00 0.00 90 1018.4
20210723003000 14 317 0.0 0.0 0.00 0.00 0.00 89 1018.5
20210723001653 15 317 0.0 0.0 0.00 0.00 0.00 89 1018.5
20210723000205 15 317 0.0 0.0 0.00 0.00 0.00 89 1018.5
20210722234652 15 317 0.0 0.0 0.00 0.00 0.00 89 1018.7
20210722233114 15 317 0.0 0.0 0.00 0.00 0.00 89 1018.7
20210722231631 15 317 0.0 0.0 0.00 0.00 0.00 88 1018.8
20210722230126 16 317 0.0 0.0 0.00 0.00 0.00 87 1018.8
20210722224558 16 317 0.0 0.0 0.00 0.00 0.00 87 1018.8
20210722223251 16 317 0.0 0.0 0.00 0.00 0.00 86 1018.7
20210722221612 16 317 0.0 0.0 0.00 0.00 0.00 85 1018.7
20210722220045 17 317 0.0 0.0 0.00 0.00 0.00 85 1018.6
20210722214553 17 317 0.0 0.0 0.00 0.00 0.00 84 1018.6
20210722213119 18 317 0.0 0.0 0.00 0.00 0.00 83 1018.6
20210722211708 18 317 0.0 0.0 0.00 0.00 0.00 82 1018.6
20210722210109 18 317 0.0 0.0 0.00 0.00 0.00 80 1018.7
20210722204613 18 317 0.0 0.0 0.00 0.00 0.00 79 1018.7
20210722203054 19 317 0.0 0.0 0.00 0.00 0.00 78 1018.7
20210722201615 19 317 0.0 0.0 0.00 0.00 0.00 78 1018.7
20210722200119 20 317 0.0 0.0 0.00 0.00 0.00 76 1018.6
20210722194616 21 317 0.0 0.0 0.00 0.00 0.00 73 1018.6
20210722193103 21 317 0.0 0.0 0.00 0.00 0.00 70 1018.4
20210722191629 22 317 0.0 0.0 0.00 0.00 0.00 66 1018.3
20210722190052 23 317 0.0 0.0 0.00 0.00 0.00 62 1018.2
20210722184542 23 317 0.0 0.0 0.00 0.00 0.00 60 1018.2
20210722183124 24 317 0.0 0.0 0.00 0.00 0.00 57 1018.2
20210722181554 24 317 0.0 0.0 0.00 0.00 0.00 55 1018.2
20210722180047 24 317 0.0 0.0 0.00 0.00 0.00 53 1018.2
20210722174540 25 315 0.0 6.4 0.00 0.00 0.00 52 1018.3
20210722173108 25 336 0.0 6.4 0.00 0.00 0.00 52 1018.3
20210722171551 25 355 1.6 8.0 0.00 0.00 0.00 50 1018.3
20210722170124 25 309 0.0 9.7 0.00 0.00 0.00 50 1018.3
20210722164553 25 330 1.6 6.4 0.00 0.00 0.00 49 1018.3
20210722163119 26 331 3.2 16.1 0.00 0.00 0.00 47 1018.4
20210722161544 26 323 1.6 14.5 0.00 0.00 0.00 47 1018.5